Wind_Speed
9 8 7 7 7 8 8 8 8 8 8 7 6 7 6 7 7 6 7 7 7 7 6 6 6 5 4 4 4 4 3 2 2 3 3 2 2 2 2 2 2 2 1 0
10 9 8 9 9 9 8 8 8 9 8 8 7 7 6 7 6 7 7 7 6 6 6 6 6 5 4 4 4 3 3 2 3 3 3 3 2 2 2 2 2 2 1 0
11 10 10 10 10 10 9 9 9 9 9 9 8 7 7 7 7 7 7 7 6 6 6 6 6 6 5 5 4 4 3 3 3 4 4 3 2 2 2 2 2 1 1 0
13 12 12 12 11 11 10 9 10 9 9 9 9 7 6 7 7 7 7 7 6 5 5 6 6 6 6 5 4 4 4 4 4 4 4 3 3 3 2 2 1 1 1 0
14 14 14 13 12 11 11 10 10 11 10 10 10 9 6 7 7 7 6 7 6 5 5 6 6 6 5 4 5 5 4 4 4 4 4 4 4 3 3 2 2 1 1 1
16 16 15 14 13 13 11 11 11 12 11 11 10 10 7 6 7 7 7 7 6 6 6 6 6 6 6 5 5 5 5 5 5 5 5 5 4 4 3 3 2 1 1 1
18 17 16 15 14 14 13 13 13 13 12 11 10 10 7 7 7 7 7 7 7 7 6 6 6 6 7 7 7 7 6 6 6 6 6 5 5 4 4 3 2 2 2 2
19 18 17 17 16 15 14 13 13 14 13 12 12 11 10 9 8 8 8 8 7 8 8 7 7 7 7 8 8 7 7 7 7 7 6 6 6 5 4 3 3 2 2 2
20 19 19 18 17 16 15 14 14 14 14 13 12 12 11 11 10 9 9 9 8 8 8 8 8 8 8 8 9 8 8 8 8 8 7 7 7 6 5 5 4 3 3 3
21 20 19 18 18 18 16 15 16 16 16 15 14 13 12 11 11 11 10 10 9 9 9 9 9 9 9 10 10 10 9 9 9 8 8 7 7 7 7 6 5 4 4 4
22 21 20 20 20 19 18 17 17 17 17 17 16 15 14 13 13 12 12 11 11 10 9 10 10 10 10 10 11 11 10 10 10 10 9 9 9 8 7 7 6 6 5 5
23 23 23 22 21 20 20 19 19 19 18 18 18 16 15 14 14 14 14 13 11 11 10 10 11 11 11 11 11 12 12 11 11 11 11 11 10 10 9 8 8 7 6 6
25 25 25 24 23 23 22 21 21 21 21 20 19 17 16 16 16 16 16 15 13 12 12 12 11 11 11 11 12 12 12 12 12 12 11 12 12 11 11 10 10 9 8 7
26 27 26 25 24 24 24 23 22 23 23 21 20 18 17 17 17 16 16 16 15 13 12 13 12 12 12 11 12 13 13 13 12 12 12 12 13 13 12 12 11 10 9 8
27 28 27 27 26 26 26 25 25 24 23 23 21 19 18 17 17 17 17 16 15 14 14 14 13 13 12 12 12 12 13 13 13 13 13 13 13 13 13 13 12 12 10 9
28 29 29 29 29 29 29 28 27 26 25 24 23 20 19 18 18 18 18 17 16 15 15 14 14 14 14 13 13 13 13 14 14 13 13 13 13 13 14 13 13 13 12 11
30 30 30 30 30 31 31 29 28 27 26 26 25 22 21 20 19 18 18 18 17 16 15 15 14 14 15 15 14 14 14 14 14 13 13 13 13 14 14 14 14 14 13 13
30 31 32 31 31 33 30 29 29 29 27 26 25 24 22 21 20 20 19 19 18 17 17 16 15 14 15 16 16 15 16 15 15 14 14 14 14 14 14 15 15 15 15 14
31 31 32 33 34 33 30 30 30 29 28 26 25 24 24 23 22 21 20 19 19 18 17 17 16 15 15 16 16 16 16 16 15 15 15 16 15 15 14 15 15 15 15 16
32 32 32 33 34 33 29 29 29 29 28 26 25 24 24 23 22 21 21 21 20 19 19 18 17 16 16 16 16 17 17 17 17 16 16 17 17 16 15 16 16 15 15 15
32 32 32 32 33 31 29 28 28 28 25 25 25 24 24 24 22 22 22 22 22 20 20 18 17 17 17 17 17 18 18 18 18 18 17 17 17 17 17 17 17 16 16 16
32 32 33 33 33 29 27 27 28 27 25 25 26 25 25 24 23 23 23 22 22 21 20 19 18 18 18 18 18 18 18 18 19 19 18 18 18 18 18 18 18 17 17 16
32 33 33 33 31 29 28 28 27 27 26 26 26 25 25 25 24 24 23 23 22 22 21 20 20 19 19 19 19 19 20 20 20 19 19 19 18 19 19 19 18 18 17 17
32 34 35 35 32 30 30 28 27 27 27 26 26 25 25 25 25 25 24 24 23 22 21 21 20 20 20 20 20 20 20 20 20 20 20 19 19 19 18 18 18 18 18 18
32 34 36 35 32 31 30 29 28 27 27 26 26 25 25 25 25 24 24 24 24 23 22 22 21 21 21 21 20 21 21 21 21 20 20 19 19 19 19 19 19 19 19 19
32 33 35 33 31 31 30 29 28 28 28 27 26 25 25 25 25 25 25 25 24 24 24 23 23 22 22 22 22 22 21 21 21 21 20 20 20 20 20 20 19 19 20 20
Wind_Direction
255 262 270 279 278 284 289 297 306 310 313 313 316 319 319 318 321 323 321 312 304 306 303 302 302 308 306 311 308 292 285 280 271 274 274 281 301 316 317 331 330 326 330 344
251 259 265 270 274 280 288 296 301 305 310 313 318 316 314 316 322 327 328 322 314 311 301 299 301 301 301 306 308 294 287 274 268 273 273 271 290 308 315 329 336 324 333 7
248 253 260 265 268 274 281 291 297 301 306 310 314 319 316 314 319 327 332 331 322 312 304 295 297 296 293 297 296 284 289 279 265 264 274 274 281 294 307 312 328 340 354 132
248 250 256 261 266 272 279 286 290 293 297 305 309 313 318 313 317 324 330 332 324 313 305 297 293 287 283 282 283 280 284 281 273 267 270 263 269 281 290 301 311 325 352 205
247 250 254 259 264 267 273 281 283 285 292 299 305 306 315 309 316 324 328 327 321 316 309 300 292 284 277 275 275 278 278 273 268 262 256 257 260 265 266 279 295 299 274 220
244 246 249 254 257 261 266 273 277 281 288 295 300 303 315 311 314 319 323 323 319 313 309 298 288 275 267 268 270 272 271 272 268 260 255 256 261 264 263 259 255 255 241 206
243 245 248 252 255 258 263 268 272 277 282 291 290 295 310 307 312 315 319 319 313 305 304 299 284 275 267 264 266 270 268 264 265 264 257 254 254 254 256 255 241 239 233 210
245 243 247 252 253 256 261 266 270 275 280 282 283 289 297 304 306 311 315 318 312 303 297 290 285 279 266 260 263 267 264 259 259 260 255 252 248 242 243 247 240 234 226 215
247 247 248 252 254 254 258 261 267 270 274 277 280 284 286 293 297 301 306 313 312 303 293 285 283 279 267 259 261 262 261 259 256 255 253 252 247 240 237 238 235 228 222 213
247 249 249 250 252 252 254 258 261 265 271 275 277 278 282 285 291 297 301 306 306 303 294 283 279 278 266 257 258 259 257 258 256 254 250 249 248 242 238 236 232 228 226 222
246 247 247 248 250 250 251 253 257 262 266 270 274 277 279 282 285 289 295 303 301 296 291 283 278 273 267 261 258 256 256 255 253 249 248 246 244 243 238 235 233 228 227 231
248 248 248 249 250 250 251 253 256 259 263 267 272 273 275 277 279 284 290 296 297 293 288 281 276 273 268 265 260 257 255 254 252 248 247 246 244 241 239 236 230 226 228 235
247 248 249 248 246 246 248 252 255 258 260 263 267 272 271 274 279 283 284 289 291 287 283 279 275 273 270 265 259 257 257 256 252 249 247 244 242 241 240 233 229 232 234 237
246 248 250 250 249 249 249 251 253 257 258 261 264 269 270 272 275 278 280 284 288 286 280 276 270 268 268 264 260 255 254 254 253 252 248 245 242 241 237 232 232 233 237 239
245 247 249 249 248 247 249 251 252 254 258 260 263 265 269 270 271 275 278 281 283 284 281 274 268 264 264 263 260 256 251 251 253 253 248 244 243 241 236 233 232 232 236 240
242 245 247 248 249 250 250 251 252 254 256 260 262 262 265 269 269 272 276 277 278 279 278 273 267 264 262 261 258 255 254 251 251 250 249 245 240 237 234 233 233 234 235 238
243 244 246 248 249 251 251 251 253 253 255 258 260 262 263 266 267 269 271 273 274 274 274 271 267 263 261 258 255 254 255 251 249 249 247 242 238 236 233 234 236 239 239 239
245 246 248 250 250 252 255 254 254 254 255 257 258 258 260 263 265 265 265 268 271 270 269 267 266 263 260 257 254 254 253 251 250 249 247 241 238 237 236 237 237 239 241 243
246 248 249 250 251 253 254 254 253 254 256 257 258 257 258 259 260 261 261 264 267 264 263 264 264 263 259 256 254 251 250 248 248 249 248 243 240 239 239 239 239 240 242 243
245 247 248 250 251 253 253 253 253 254 254 254 255 255 255 256 256 258 260 260 262 261 260 259 260 261 259 256 253 250 249 247 246 248 248 245 241 240 239 240 240 242 242 243
246 247 247 249 250 251 253 251 251 252 253 252 252 252 252 253 254 256 257 258 259 257 257 257 258 258 258 256 253 251 250 247 245 246 245 245 243 242 242 242 242 243 243 245
248 248 247 248 248 250 251 250 251 252 251 250 250 250 251 253 252 254 255 255 255 254 255 256 257 257 256 255 254 251 249 246 243 244 244 245 244 243 245 244 242 243 246 248
248 246 245 246 248 250 249 249 251 250 249 249 249 250 251 252 252 254 255 253 251 252 252 254 256 255 254 254 253 249 248 244 242 242 244 245 245 243 244 244 243 244 247 249
249 246 244 244 246 247 247 247 247 248 249 250 249 250 250 251 252 252 252 251 250 251 253 253 254 254 254 252 251 249 248 245 243 243 242 242 243 241 240 243 245 246 248 249
249 247 243 243 244 246 245 245 246 246 247 249 248 248 250 250 250 251 251 250 250 252 252 252 253 253 252 250 249 249 248 246 242 242 241 241 242 242 241 243 246 248 249 250
248 246 242 241 241 243 243 243 244 246 246 247 248 247 247 249 249 250 250 250 250 251 251 251 252 252 250 249 248 248 247 243 241 241 243 243 243 244 243 243 246 249 250 252
Height
5882 5883 5883 5883 5882 5882 5881 5881 5880 5879 5878 5877 5876 5875 5875 5873 5872 5871 5871 5870 5869 5868 5868 5867 5867 5866 5865 5864 5864 5863 5863 5863 5863 5863 5863 5862 5862 5862 5861 5860 5859 5859 5858 5857
5880 5881 5881 5880 5880 5879 5879 5879 5878 5877 5876 5876 5875 5874 5873 5872 5871 5870 5869 5868 5867 5867 5866 5865 5865 5865 5864 5864 5863 5863 5863 5863 5862 5862 5862 5861 5861 5861 5860 5859 5859 5858 5858 5857
5877 5878 5877 5877 5877 5877 5877 5877 5876 5875 5874 5874 5873 5873 5872 5871 5869 5869 5868 5867 5866 5865 5865 5864 5864 5863 5863 5863 5862 5862 5862 5862 5862 5861 5861 5860 5860 5860 5859 5859 5858 5858 5857 5857
5873 5874 5874 5874 5875 5874 5875 5874 5874 5873 5873 5872 5872 5872 5871 5869 5868 5867 5866 5865 5864 5864 5863 5863 5862 5862 5862 5862 5861 5861 5861 5861 5860 5860 5859 5859 5859 5859 5858 5858 5858 5857 5857 5856
5870 5871 5871 5872 5872 5872 5872 5872 5871 5871 5870 5870 5870 5869 5870 5868 5867 5866 5865 5864 5863 5862 5861 5861 5861 5860 5860 5860 5860 5860 5860 5860 5859 5859 5859 5858 5858 5858 5858 5857 5857 5857 5856 5856
5866 5867 5867 5868 5869 5869 5869 5869 5869 5868 5868 5868 5868 5867 5868 5866 5865 5864 5863 5862 5861 5860 5860 5859 5859 5859 5859 5859 5859 5859 5859 5858 5858 5858 5858 5857 5857 5857 5857 5856 5856 5856 5856 5856
5862 5863 5863 5864 5865 5866 5866 5867 5867 5866 5866 5866 5865 5864 5865 5864 5863 5862 5861 5860 5859 5859 5858 5858 5857 5857 5857 5858 5858 5858 5857 5857 5857 5857 5856 5856 5856 5856 5856 5855 5855 5855 5855 5855
5857 5859 5860 5860 5861 5862 5863 5864 5864 5864 5863 5863 5862 5862 5863 5861 5860 5860 5859 5858 5858 5857 5857 5856 5856 5855 5855 5856 5856 5856 5856 5855 5855 5855 5855 5855 5854 5855 5855 5855 5855 5854 5854 5855
5851 5854 5855 5856 5857 5858 5859 5859 5860 5860 5859 5859 5859 5859 5859 5858 5858 5857 5857 5856 5856 5855 5854 5854 5854 5853 5853 5853 5854 5854 5854 5853 5853 5853 5853 5853 5853 5853 5853 5853 5853 5853 5854 5854
5846 5848 5850 5851 5852 5853 5855 5855 5855 5855 5855 5855 5856 5856 5856 5855 5855 5854 5854 5854 5853 5853 5852 5851 5851 5851 5851 5851 5851 5851 5851 5851 5851 5851 5851 5851 5851 5851 5851 5852 5852 5852 5853 5853
5840 5843 5845 5846 5847 5849 5850 5850 5851 5851 5851 5852 5852 5855 5854 5853 5852 5851 5851 5851 5851 5850 5849 5849 5848 5848 5848 5848 5848 5848 5848 5849 5849 5849 5849 5849 5850 5850 5850 5850 5850 5851 5851 5852
5833 5836 5838 5840 5842 5843 5844 5845 5846 5847 5847 5847 5848 5852 5849 5850 5849 5848 5848 5848 5847 5847 5846 5846 5845 5845 5845 5845 5845 5845 5846 5846 5846 5846 5847 5847 5847 5847 5848 5848 5849 5849 5850 5850
5827 5829 5831 5834 5837 5838 5838 5839 5841 5842 5842 5842 5843 5848 5845 5846 5845 5845 5845 5844 5844 5844 5843 5843 5842 5842 5842 5842 5842 5842 5842 5843 5843 5843 5844 5844 5844 5845 5845 5846 5847 5848 5848 5848
5820 5822 5825 5828 5830 5831 5833 5834 5835 5836 5836 5837 5839 5841 5841 5841 5841 5841 5841 5840 5840 5840 5840 5839 5839 5839 5839 5839 5839 5839 5839 5840 5840 5840 5841 5841 5842 5842 5843 5844 5845 5845 5846 5847
5812 5815 5817 5819 5822 5824 5826 5828 5829 5829 5831 5832 5834 5835 5837 5836 5837 5837 5836 5836 5836 5836 5836 5835 5835 5835 5835 5835 5835 5836 5836 5836 5837 5837 5837 5838 5839 5839 5840 5841 5842 5843 5844 5845
5805 5807 5810 5812 5814 5816 5818 5820 5821 5823 5824 5826 5828 5830 5831 5831 5831 5831 5831 5831 5831 5831 5831 5831 5831 5831 5831 5831 5832 5832 5832 5833 5833 5834 5834 5835 5835 5836 5837 5838 5839 5840 5841 5842
5797 5800 5802 5804 5806 5807 5810 5813 5815 5817 5818 5820 5821 5825 5825 5825 5826 5826 5826 5826 5827 5827 5827 5827 5827 5827 5827 5827 5828 5828 5829 5829 5830 5830 5831 5831 5832 5833 5834 5835 5836 5837 5838 5839
5790 5791 5793 5795 5798 5799 5805 5806 5808 5809 5811 5813 5815 5816 5818 5819 5820 5820 5821 5821 5821 5822 5822 5822 5822 5822 5823 5823 5823 5824 5825 5825 5826 5827 5827 5828 5829 5830 5831 5832 5833 5834 5835 5836
5781 5783 5785 5786 5788 5791 5796 5798 5800 5802 5804 5806 5807 5809 5811 5812 5813 5814 5815 5816 5816 5816 5817 5817 5817 5818 5818 5818 5819 5820 5820 5821 5822 5823 5824 5825 5826 5826 5827 5828 5829 5830 5831 5833
5773 5775 5777 5778 5779 5783 5790 5791 5792 5795 5796 5799 5800 5802 5803 5804 5806 5808 5809 5809 5810 5811 5811 5812 5812 5813 5813 5813 5814 5815 5816 5817 5818 5819 5819 5820 5822 5823 5824 5825 5826 5827 5828 5829
5764 5766 5768 5769 5771 5775 5781 5783 5784 5787 5791 5792 5793 5794 5796 5797 5800 5801 5802 5803 5803 5804 5805 5806 5807 5807 5808 5808 5809 5810 5811 5812 5813 5814 5815 5816 5817 5818 5820 5821 5822 5823 5824 5825
5755 5757 5759 5761 5763 5770 5773 5774 5777 5780 5782 5784 5785 5787 5789 5791 5792 5793 5795 5796 5797 5798 5799 5800 5801 5802 5802 5803 5804 5805 5806 5807 5808 5809 5810 5811 5813 5814 5815 5816 5818 5819 5820 5821
5746 5749 5751 5754 5759 5762 5764 5766 5768 5771 5773 5776 5778 5780 5782 5783 5785 5786 5788 5789 5790 5792 5793 5794 5795 5796 5797 5797 5798 5799 5800 5801 5802 5804 5805 5806 5808 5809 5810 5811 5813 5814 5815 5816
5738 5740 5742 5745 5749 5753 5755 5757 5760 5763 5765 5768 5770 5773 5774 5776 5777 5779 5781 5782 5784 5785 5786 5788 5789 5790 5790 5791 5792 5793 5794 5795 5797 5798 5800 5801 5802 5804 5805 5806 5808 5809 5810 5811
5729 5730 5733 5736 5741 5743 5746 5749 5752 5755 5757 5760 5762 5765 5766 5768 5770 5772 5773 5775 5777 5778 5780 5781 5782 5783 5784 5785 5786 5787 5788 5790 5791 5793 5794 5796 5797 5799 5800 5801 5802 5803 5805 5805
5720 5722 5725 5728 5733 5735 5738 5741 5744 5746 5749 5751 5754 5757 5759 5761 5762 5764 5766 5768 5769 5771 5773 5774 5775 5776 5778 5779 5780 5781 5782 5784 5785 5787 5789 5790 5792 5793 5794 5795 5797 5798 5799 5800